Location: Albany
(42.6526°N, 73.7562°W)
Time: 15:41:41
(UTC+00:00)

Cosmos 1933 - Pass Details

Date: 19 November 2019
Orbit: 546 x 565 km, 82.5° (Epoch: 10 December)

Event Time Altitude Azimuth Distance (km) Brightness Sun altitude
Rises 23:36:07 0° 198° (SSW) 2,737 7.2 -23.2°
Reaches altitude 10° 23:38:19 10° 203° (SSW) 1,844 6.3 -23.6°
Maximum altitude 23:42:17 53° 281° (W) 694 4.1 -24.3°
Enters shadow 23:44:15 27° 346° (NNW) 1,095 4.9 -24.7°
